Regional Weather Roundup
Issued by NWS

Home | Current Version | Previous Version | Text Only | Print | Product List | Glossary On
Versions: 1 2 3 4 5 6 7 8 9 10 11 12 13 14 15 16 17 18 19 20 21 22 23 24 25 26 27 28 29 30 31 32 33 34 35 36 37 38 39 40 41 42 43 44 45 46 47 48 49 50
000
ASUS43 KLMK 210002
RWRKY
KENTUCKY REGIONAL WEATHER ROUNDUP
NATIONAL WEATHER SERVICE LOUISVILLE KY
800 PM EDT MON APR 20 2015

NOTE "FAIR" INDICATES FEW OR NO CLOUDS BELOW 12,000 FEET
WITH NO SIGNIFICANT WEATHER AND/OR OBSTRUCTIONS TO VISIBILITY.

KYZ001>023-026-027-061>063-070>075-210100-
WESTERN AND SOUTH CENTRAL KENTUCKY

CITY           SKY/WX    TMP DP  RH WIND       PRES   REMARKS
PADUCAH        MOCLDY    60  35  39 W7        29.78R
HENDERSON      MOCLDY    57  37  47 NW10      29.78R
OWENSBORO      CLOUDY    57  41  55 NW10      29.78R
HOPKINSVILLE   PTCLDY    58  40  50 W8        29.78R
BOWLING GREEN  MOCLDY    58  43  57 W6        29.77R
GLASGOW        NOT AVBL
$$

KYZ024-025-028>034-038-045-046-053-210100-
NORTH CENTRAL KENTUCKY

CITY           SKY/WX    TMP DP  RH WIND       PRES   REMARKS
LOUISVILLE/SDF PTCLDY    57  37  47 W16       29.73R
LOUISVILLE/LOU MOCLDY    57  36  45 W14       29.73R
FORT KNOX      MOCLDY    55  39  56 W10       29.73R
$$

KYZ035>037-039>044-047>052-055>060-089>105-210100-
NORTHEAST KENTUCKY

CITY           SKY/WX    TMP DP  RH WIND       PRES   REMARKS
LEXINGTON      CLOUDY    56  41  57 W14G20    29.71R
COVINGTON      MOCLDY    53  39  59 W13       29.68R
FRANKFORT      PTCLDY    56  36  47 W10G20    29.70R
$$

KYZ054-064>069-076>088-106>120-210100-
SOUTHEAST KENTUCKY

CITY           SKY/WX    TMP DP  RH WIND       PRES   REMARKS
JACKSON        LGT RAIN  52  47  83 W10       29.70R
LONDON         LGT RAIN  53  44  71 W9        29.75R
SOMERSET       NOT AVBL
MIDDLESBORO    NOT AVBL
MONTICELLO     MOCLDY    54  51  89 W7        29.79R
$$




USA.gov is the U.S. government's official web portal to all federal, state and local government web resources and services.